,,,PA_Meas_PMT16A,,PR_Meas_QMR101_102,,RH_Meas_QMH101,,SR_Meas_QMS101,,TA_Meas_QMH101,,GenWind,,GenWind,
date,time,status,PA,status,PR,status,RH,status,SR,status,TA,status,DirAvg,status,SpdAvg,
2008-09-24, 00:00:04,VALID,1005.57,VALID,0,VALID,93.469,VALID,0,VALID,24.9495,VALID,355,VALID,0.385547,
2008-09-24, 00:01:04,VALID,1005.56,VALID,0,VALID,93.4004,VALID,0,VALID,24.9495,VALID,355,VALID,0.336719,
2008-09-24, 00:02:04,VALID,1005.56,VALID,0,VALID,93.4156,VALID,0,VALID,24.93,VALID,355,VALID,0.133594,
2008-09-24, 00:03:04,VALID,1005.56,VALID,0,VALID,93.4156,VALID,0,VALID,24.9319,VALID,355,VALID,0.275781,
2008-09-24, 00:04:04,VALID,1005.58,VALID,0,VALID,93.408,VALID,0,VALID,24.9106,VALID,355,VALID,0.257422,
2008-09-24, 00:05:04,VALID,1005.56,VALID,0,VALID,93.4309,VALID,0,VALID,24.9106,VALID,355,VALID,0.247656,
2008-09-24, 00:06:04,VALID,1005.59,VALID,0,VALID,93.4004,VALID,0,VALID,24.9106,VALID,355,VALID,0.321094,
2008-09-24, 00:07:04,VALID,1005.56,VALID,0,VALID,93.3775,VALID,0.100563,VALID,24.9319,VALID,355,VALID,0.319531,
2008-09-24, 00:08:04,VALID,1005.54,VALID,0,VALID,93.3622,VALID,0,VALID,24.9125,VALID,355,VALID,0.4,
2008-09-24, 00:09:04,VALID,1005.53,VALID,0,VALID,93.347,VALID,0,VALID,24.8716,VALID,355,VALID,0.401563,
2008-09-24, 00:10:04,VALID,1005.53,VALID,0,VALID,93.3241,VALID,0.100563,VALID,24.8716,VALID,354,VALID,0.402344,
2008-09-24, 00:11:04,VALID,1005.48,VALID,0,VALID,93.3394,VALID,0,VALID,24.8522,VALID,354,VALID,0.326562,
2008-09-24, 00:12:04,VALID,1005.45,VALID,0,VALID,93.3928,VALID,0,VALID,24.8308,VALID,354,VALID,0.254297,
2008-09-24, 00:13:04,VALID,1005.42,VALID,0,VALID,93.4156,VALID,0,VALID,24.8113,VALID,354,VALID,0.232422,
2008-09-24, 00:14:04,VALID,1005.38,VALID,0,VALID,93.3928,VALID,0,VALID,24.8327,VALID,350,VALID,0.457812,
2008-09-24, 00:15:04,VALID,1005.34,VALID,0,VALID,93.4156,VALID,0,VALID,24.8327,VALID,350,VALID,0.366797,
2008-09-24, 00:16:04,VALID,1005.29,VALID,0,VALID,93.4233,VALID,0.100563,VALID,24.8113,VALID,350,VALID,0.334375,
2008-09-24, 00:17:04,VALID,1005.26,VALID,0,VALID,93.3699,VALID,0,VALID,24.8327,VALID,350,VALID,0.334375,
2008-09-24, 00:18:04,VALID,1005.25,VALID,0,VALID,93.3394,VALID,0,VALID,24.8132,VALID,350,VALID,0.410156,
2008-09-24, 00:19:04,VALID,1005.25,VALID,0,VALID,93.3394,VALID,0,VALID,24.7937,VALID,350,VALID,0.433984,
2008-09-24, 00:20:04,VALID,1005.2,VALID,0,VALID,93.3546,VALID,0.100563,VALID,24.8132,VALID,350,VALID,0.507031,
2008-09-24, 00:21:04,VALID,1005.23,VALID,0,VALID,93.3622,VALID,0.100563,VALID,24.7743,VALID,350,VALID,0.547656,
2008-09-24, 00:22:04,VALID,1005.19,VALID,0,VALID,93.3241,VALID,0,VALID,24.7761,VALID,348,VALID,0.567578,
2008-09-24, 00:23:04,VALID,1005.19,VALID,0,VALID,93.3317,VALID,0,VALID,24.7548,VALID,348,VALID,0.482812,
2008-09-24, 00:24:04,VALID,1005.19,VALID,0,VALID,93.4004,VALID,0,VALID,24.7548,VALID,348,VALID,0.602734,
2008-09-24, 00:25:04,VALID,1005.16,VALID,0,VALID,93.4538,VALID,0.100563,VALID,24.7548,VALID,348,VALID,0.394922,
2008-09-24, 00:26:04,VALID,1005.14,VALID,0,VALID,93.408,VALID,0.100563,VALID,24.7548,VALID,348,VALID,0.374219,
2008-09-24, 00:27:04,VALID,1005.1,VALID,0,VALID,93.3928,VALID,0.100563,VALID,24.7548,VALID,348,VALID,0.366016,
2008-09-24, 00:28:04,VALID,1005.08,VALID,0,VALID,93.4614,VALID,0,VALID,24.7548,VALID,348,VALID,0.322656,
2008-09-24, 00:29:04,VALID,1005.08,VALID,0,VALID,93.4385,VALID,0.100563,VALID,24.714,VALID,348,VALID,0.337891,
2008-09-24, 00:30:04,VALID,1005.05,VALID,0,VALID,93.469,VALID,0.100563,VALID,24.714,VALID,348,VALID,0.49375,
2008-09-24, 00:31:04,VALID,1005.03,VALID,0,VALID,93.408,VALID,0,VALID,24.7353,VALID,348,VALID,0.535937,
2008-09-24, 00:32:04,VALID,1005.04,VALID,0,VALID,93.4843,VALID,0.100563,VALID,24.7159,VALID,348,VALID,0.602344,
2008-09-24, 00:33:04,VALID,1005.01,VALID,0,VALID,93.4919,VALID,0,VALID,24.7159,VALID,348,VALID,0.572266,
2008-09-24, 00:34:04,VALID,1005.02,VALID,0,VALID,93.4538,VALID,0.100563,VALID,24.7353,VALID,348,VALID,0.591406,
2008-09-24, 00:35:04,VALID,1004.98,VALID,0,VALID,93.469,VALID,0.100563,VALID,24.7159,VALID,342,VALID,0.689844,
2008-09-24, 00:36:04,VALID,1005,VALID,0,VALID,93.469,VALID,0,VALID,24.7159,VALID,345,VALID,0.557422,
2008-09-24, 00:37:04,VALID,1005,VALID,0,VALID,93.4614,VALID,0,VALID,24.6945,VALID,350,VALID,0.372656,
2008-09-24, 00:38:04,VALID,1004.97,VALID,0,VALID,93.4614,VALID,0.100563,VALID,24.7159,VALID,350,VALID,0.461328,
2008-09-24, 00:39:04,VALID,1004.93,VALID,0,VALID,93.4614,VALID,0,VALID,24.7353,VALID,350,VALID,0.348437,
2008-09-24, 00:40:04,VALID,1004.94,VALID,0,VALID,93.408,VALID,0,VALID,24.7159,VALID,350,VALID,0.176953,
2008-09-24, 00:41:04,VALID,1004.92,VALID,0,VALID,93.4309,VALID,0,VALID,24.6945,VALID,350,VALID,0.441797,
2008-09-24, 00:42:04,VALID,1004.91,VALID,0,VALID,93.3928,VALID,0,VALID,24.7159,VALID,350,VALID,0.467578,
2008-09-24, 00:43:04,VALID,1004.91,VALID,0,VALID,93.3851,VALID,0,VALID,24.6983,VALID,350,VALID,0.237891,
2008-09-24, 00:44:04,VALID,1004.94,VALID,0,VALID,93.4767,VALID,0.100563,VALID,24.7177,VALID,350,VALID,0.244922,
2008-09-24, 00:45:04,VALID,1004.94,VALID,0,VALID,93.5453,VALID,0,VALID,24.6769,VALID,350,VALID,0.358203,
2008-09-24, 00:46:04,VALID,1004.97,VALID,0,VALID,93.5758,VALID,0,VALID,24.6769,VALID,350,VALID,0.363281,
2008-09-24, 00:47:04,VALID,1004.98,VALID,0,VALID,93.5911,VALID,0,VALID,24.6769,VALID,350,VALID,0.0648438,
2008-09-24, 00:48:04,VALID,1004.97,VALID,0,VALID,93.6521,VALID,0,VALID,24.6556,VALID,350,VALID,0,
2008-09-24, 00:49:04,VALID,1004.99,VALID,0,VALID,93.675,VALID,0,VALID,24.6361,VALID,350,VALID,0.196875,
2008-09-24, 00:50:04,VALID,1004.96,VALID,0,VALID,93.6674,VALID,0.100563,VALID,24.6361,VALID,350,VALID,0.113672,
2008-09-24, 00:51:04,VALID,1004.96,VALID,0,VALID,93.7055,VALID,0.100563,VALID,24.6166,VALID,350,VALID,0.214844,
2008-09-24, 00:52:04,VALID,1004.95,VALID,0,VALID,93.7132,VALID,0,VALID,24.6166,VALID,350,VALID,0.155469,
2008-09-24, 00:53:04,VALID,1004.97,VALID,0,VALID,93.7284,VALID,0.100563,VALID,24.638,VALID,350,VALID,0,
2008-09-24, 00:54:04,VALID,1004.91,VALID,0,VALID,93.7818,VALID,0,VALID,24.6185,VALID,350,VALID,0.242188,
2008-09-24, 00:55:04,VALID,1004.89,VALID,0,VALID,93.8505,VALID,0.100563,VALID,24.6361,VALID,7,VALID,0.447266,
2008-09-24, 00:56:04,VALID,1004.86,VALID,0,VALID,93.7818,VALID,0.100563,VALID,24.6574,VALID,7,VALID,0.225391,
2008-09-24, 00:57:04,VALID,1004.84,VALID,0,VALID,93.7666,VALID,0,VALID,24.6788,VALID,7,VALID,0,
2008-09-24, 00:58:04,VALID,1004.83,VALID,0,VALID,93.7437,VALID,0,VALID,24.6574,VALID,7,VALID,0,
2008-09-24, 00:59:04,VALID,1004.79,VALID,0,VALID,93.7666,VALID,0,VALID,24.6574,VALID,6,VALID,0,
2008-09-24, 01:00:04,VALID,1004.79,VALID,0,VALID,93.7742,VALID,0,VALID,24.638,VALID,6,VALID,0,
2008-09-24, 01:01:04,VALID,1004.76,VALID,0,VALID,93.7742,VALID,0,VALID,24.6185,VALID,6,VALID,0,
2008-09-24, 01:02:04,VALID,1004.8,VALID,0,VALID,93.7284,VALID,0,VALID,24.6204,VALID,6,VALID,0.218359,
2008-09-24, 01:03:04,VALID,1004.77,VALID,0,VALID,93.7132,VALID,0,VALID,24.599,VALID,6,VALID,0.308203,
2008-09-24, 01:04:04,VALID,1004.77,VALID,0,VALID,93.7895,VALID,0,VALID,24.5796,VALID,352,VALID,0.623047,
2008-09-24, 01:05:04,VALID,1004.74,VALID,0,VALID,93.7818,VALID,0,VALID,24.5796,VALID,351,VALID,0.553125,
2008-09-24, 01:06:04,VALID,1004.75,VALID,0,VALID,93.6903,VALID,0,VALID,24.5582,VALID,351,VALID,0.424609,
2008-09-24, 01:07:04,VALID,1004.77,VALID,0,VALID,93.675,VALID,0.100563,VALID,24.5796,VALID,354,VALID,0.500391,
2008-09-24, 01:08:04,VALID,1004.73,VALID,0,VALID,93.7208,VALID,0,VALID,24.5796,VALID,354,VALID,0.625781,
2008-09-24, 01:09:04,VALID,1004.74,VALID,0,VALID,93.6064,VALID,0,VALID,24.5601,VALID,354,VALID,0.449219,
2008-09-24, 01:10:04,VALID,1004.77,VALID,0,VALID,93.5682,VALID,0,VALID,24.5406,VALID,354,VALID,0.588672,
2008-09-24, 01:11:04,VALID,1004.79,VALID,0,VALID,93.4462,VALID,0,VALID,24.5406,VALID,354,VALID,0.45,
2008-09-24, 01:12:04,VALID,1004.81,VALID,0,VALID,93.3851,VALID,0,VALID,24.5406,VALID,355,VALID,0.508984,
2008-09-24, 01:13:04,VALID,1004.82,VALID,0,VALID,93.2936,VALID,0,VALID,24.5406,VALID,354,VALID,0.329688,
2008-09-24, 01:14:04,VALID,1004.81,VALID,0,VALID,93.2097,VALID,0,VALID,24.5406,VALID,354,VALID,0.364844,
2008-09-24, 01:15:04,VALID,1004.84,VALID,0,VALID,93.141,VALID,0,VALID,24.5601,VALID,354,VALID,0.00351562,
2008-09-24, 01:16:04,VALID,1004.8,VALID,0,VALID,93.0266,VALID,0,VALID,24.5406,VALID,354,VALID,0.221094,
2008-09-24, 01:17:04,VALID,1004.77,VALID,0,VALID,92.9426,VALID,0,VALID,24.5425,VALID,354,VALID,0.0816406,
2008-09-24, 01:18:04,VALID,1004.75,VALID,0,VALID,92.8892,VALID,0.100563,VALID,24.5212,VALID,354,VALID,0.309375,
2008-09-24, 01:19:04,VALID,1004.76,VALID,0,VALID,92.7748,VALID,0,VALID,24.5017,VALID,354,VALID,0.405859,
2008-09-24, 01:20:04,VALID,1004.74,VALID,0,VALID,92.7901,VALID,0,VALID,24.5017,VALID,354,VALID,0.201562,
2008-09-24, 01:21:04,VALID,1004.74,VALID,0,VALID,92.7138,VALID,0,VALID,24.5017,VALID,354,VALID,0.361719,
2008-09-24, 01:22:04,VALID,1004.72,VALID,0,VALID,92.7138,VALID,0,VALID,24.4822,VALID,354,VALID,0.202734,
2008-09-24, 01:23:04,VALID,1004.73,VALID,0,VALID,92.6756,VALID,0,VALID,24.4628,VALID,354,VALID,0.358984,
2008-09-24, 01:24:04,VALID,1004.71,VALID,0,VALID,92.6909,VALID,0,VALID,24.4238,VALID,354,VALID,0.261719,
2008-09-24, 01:25:04,VALID,1004.73,VALID,0,VALID,92.729,VALID,0.100563,VALID,24.383,VALID,354,VALID,0.370313,
2008-09-24, 01:26:04,VALID,1004.71,VALID,0,VALID,92.7977,VALID,0,VALID,24.3654,VALID,354,VALID,0.405859,
2008-09-24, 01:27:04,VALID,1004.71,VALID,0,VALID,92.8892,VALID,0.100563,VALID,24.3246,VALID,354,VALID,0.323047,
2008-09-24, 01:28:04,VALID,1004.72,VALID,0,VALID,92.9732,VALID,0,VALID,24.3052,VALID,354,VALID,0.480078,
2008-09-24, 01:29:04,VALID,1004.71,VALID,0,VALID,93.0113,VALID,0,VALID,24.2857,VALID,354,VALID,0.408984,
2008-09-24, 01:30:04,VALID,1004.71,VALID,0,VALID,93.0571,VALID,0,VALID,24.2681,VALID,354,VALID,0.191016,
2008-09-24, 01:31:04,VALID,1004.72,VALID,0,VALID,93.1029,VALID,0.100563,VALID,24.2486,VALID,354,VALID,0.343359,
2008-09-24, 01:32:04,VALID,1004.71,VALID,0,VALID,93.1563,VALID,0,VALID,24.2291,VALID,354,VALID,0.184766,
2008-09-24, 01:33:04,VALID,1004.72,VALID,0,VALID,93.1639,VALID,0,VALID,24.2097,VALID,354,VALID,0.249609,
2008-09-24, 01:34:04,VALID,1004.71,VALID,0,VALID,93.1257,VALID,0,VALID,24.1689,VALID,354,VALID,0.239063,
2008-09-24, 01:35:04,VALID,1004.7,VALID,0,VALID,93.1791,VALID,0,VALID,24.1902,VALID,354,VALID,0.289844,
2008-09-24, 01:36:04,VALID,1004.7,VALID,0,VALID,93.1639,VALID,0.100563,VALID,24.1707,VALID,354,VALID,0.239063,
2008-09-24, 01:37:04,VALID,1004.72,VALID,0,VALID,93.1944,VALID,0,VALID,24.1513,VALID,354,VALID,0.249609,
2008-09-24, 01:38:04,VALID,1004.73,VALID,0,VALID,93.2478,VALID,0.100563,VALID,24.1513,VALID,354,VALID,0.350391,
2008-09-24, 01:39:04,VALID,1004.73,VALID,0,VALID,93.2478,VALID,0.100563,VALID,24.1318,VALID,354,VALID,0.300781,
2008-09-24, 01:40:04,VALID,1004.75,VALID,0,VALID,93.2936,VALID,0.100563,VALID,24.1318,VALID,354,VALID,0.496875,
2008-09-24, 01:41:04,VALID,1004.73,VALID,0,VALID,93.3165,VALID,0,VALID,24.1513,VALID,354,VALID,0.470313,
2008-09-24, 01:42:04,VALID,1004.72,VALID,0,VALID,93.2859,VALID,0,VALID,24.1513,VALID,354,VALID,0.533984,
2008-09-24, 01:43:04,VALID,1004.68,VALID,0,VALID,93.2554,VALID,0.100563,VALID,24.1318,VALID,354,VALID,0.598828,
2008-09-24, 01:44:04,VALID,1004.65,VALID,0,VALID,93.2402,VALID,0.100563,VALID,24.1105,VALID,354,VALID,0.570703,
2008-09-24, 01:45:04,VALID,1004.67,VALID,0,VALID,93.3241,VALID,0,VALID,24.1318,VALID,354,VALID,0.533594,
2008-09-24, 01:46:04,VALID,1004.64,VALID,0,VALID,93.3241,VALID,0.100563,VALID,24.091,VALID,354,VALID,0.311719,
2008-09-24, 01:47:04,VALID,1004.63,VALID,0,VALID,93.3622,VALID,0.100563,VALID,24.0929,VALID,354,VALID,0.301172,
2008-09-24, 01:48:04,VALID,1004.63,VALID,0,VALID,93.3317,VALID,0.100563,VALID,24.0716,VALID,354,VALID,0.193359,
2008-09-24, 01:49:04,VALID,1004.63,VALID,0,VALID,93.3012,VALID,0.100563,VALID,24.0326,VALID,354,VALID,0.25625,
2008-09-24, 01:50:04,VALID,1004.66,VALID,0,VALID,93.3394,VALID,0.100563,VALID,24.0132,VALID,354,VALID,0.153906,
2008-09-24, 01:51:04,VALID,1004.66,VALID,0,VALID,93.3622,VALID,0.100563,VALID,24.0345,VALID,354,VALID,0,
2008-09-24, 01:52:04,VALID,1004.69,VALID,0,VALID,93.3928,VALID,0.100563,VALID,24.015,VALID,354,VALID,0,
2008-09-24, 01:53:04,VALID,1004.69,VALID,0,VALID,93.5301,VALID,0,VALID,24.015,VALID,354,VALID,0.0949219,
2008-09-24, 01:54:04,VALID,1004.68,VALID,0,VALID,93.6369,VALID,0.100563,VALID,24.0345,VALID,354,VALID,0.332422,
2008-09-24, 01:55:04,VALID,1004.61,VALID,0,VALID,93.6064,VALID,0,VALID,24.015,VALID,354,VALID,0.257813,
2008-09-24, 01:56:04,VALID,1004.6,VALID,0,VALID,93.553,VALID,0.100563,VALID,24.0326,VALID,354,VALID,0,
2008-09-24, 01:57:04,VALID,1004.56,VALID,0,VALID,93.4767,VALID,0.100563,VALID,24.0132,VALID,352,VALID,0,
2008-09-24, 01:58:04,VALID,1004.53,VALID,0,VALID,93.4156,VALID,0.100563,VALID,24.0539,VALID,352,VALID,0.00273437,
2008-09-24, 01:59:04,VALID,1004.5,VALID,0,VALID,93.4614,VALID,0.100563,VALID,24.0345,VALID,352,VALID,0,
2008-09-24, 02:00:04,VALID,1004.49,VALID,0,VALID,93.4843,VALID,0,VALID,24.0539,VALID,352,VALID,0.0328125,
2008-09-24, 02:01:04,VALID,1004.49,VALID,0,VALID,93.469,VALID,0,VALID,24.0345,VALID,352,VALID,0.329297,
2008-09-24, 02:02:04,VALID,1004.5,VALID,0,VALID,93.5072,VALID,0.100563,VALID,24.0132,VALID,352,VALID,0.397656,
2008-09-24, 02:03:04,VALID,1004.51,VALID,0,VALID,93.4843,VALID,0,VALID,24.015,VALID,352,VALID,0.478125,
2008-09-24, 02:04:04,VALID,1004.54,VALID,0,VALID,93.4233,VALID,0.100563,VALID,23.9955,VALID,352,VALID,0.398047,
2008-09-24, 02:05:04,VALID,1004.55,VALID,0,VALID,93.3775,VALID,0.100563,VALID,23.9566,VALID,352,VALID,0.400781,
2008-09-24, 02:06:04,VALID,1004.54,VALID,0,VALID,93.4004,VALID,0.100563,VALID,23.8982,VALID,352,VALID,0.251172,
2008-09-24, 02:07:04,VALID,1004.52,VALID,0,VALID,93.4614,VALID,0.100563,VALID,23.8982,VALID,352,VALID,0.232812,
2008-09-24, 02:08:04,VALID,1004.51,VALID,0,VALID,93.553,VALID,0.100563,VALID,23.838,VALID,352,VALID,0.333594,
2008-09-24, 02:09:04,VALID,1004.48,VALID,0,VALID,93.6674,VALID,0,VALID,23.8805,VALID,352,VALID,0.254687,
2008-09-24, 02:10:04,VALID,1004.49,VALID,0,VALID,93.6598,VALID,0,VALID,23.8611,VALID,352,VALID,0.421094,
2008-09-24, 02:11:04,VALID,1004.49,VALID,0,VALID,93.675,VALID,0,VALID,23.8611,VALID,352,VALID,0.583984,
2008-09-24, 02:12:04,VALID,1004.49,VALID,0,VALID,93.7055,VALID,0,VALID,23.8805,VALID,352,VALID,0.526953,
2008-09-24, 02:13:04,VALID,1004.47,VALID,0,VALID,93.6598,VALID,0,VALID,23.8593,VALID,352,VALID,0.467187,
2008-09-24, 02:14:04,VALID,1004.46,VALID,0,VALID,93.614,VALID,0,VALID,23.8416,VALID,352,VALID,0.664063,
2008-09-24, 02:15:04,VALID,1004.48,VALID,0,VALID,93.6598,VALID,0,VALID,23.8009,VALID,353,VALID,0.575,
2008-09-24, 02:16:04,VALID,1004.45,VALID,0,VALID,93.7589,VALID,0,VALID,23.7814,VALID,353,VALID,0.555859,
2008-09-24, 02:17:04,VALID,1004.44,VALID,0,VALID,93.7666,VALID,0,VALID,23.7832,VALID,353,VALID,0.468359,
2008-09-24, 02:18:04,VALID,1004.42,VALID,0,VALID,93.9497,VALID,0,VALID,23.7619,VALID,353,VALID,0.3875,
2008-09-24, 02:19:04,VALID,1004.41,VALID,0,VALID,93.9649,VALID,0,VALID,23.7637,VALID,353,VALID,0.345313,
2008-09-24, 02:20:04,VALID,1004.39,VALID,0,VALID,94.0107,VALID,0,VALID,23.7832,VALID,353,VALID,0.38125,
2008-09-24, 02:21:04,VALID,1004.41,VALID,0,VALID,94.0717,VALID,0,VALID,23.7425,VALID,353,VALID,0.498437,
2008-09-24, 02:22:04,VALID,1004.39,VALID,0,VALID,94.1862,VALID,0,VALID,23.7619,VALID,353,VALID,0.426172,
2008-09-24, 02:23:04,VALID,1004.4,VALID,0,VALID,94.2472,VALID,0,VALID,23.7619,VALID,353,VALID,0.316406,
2008-09-24, 02:24:04,VALID,1004.42,VALID,0,VALID,94.3006,VALID,0,VALID,23.8027,VALID,353,VALID,0.228125,
2008-09-24, 02:25:04,VALID,1004.41,VALID,0,VALID,94.2396,VALID,0,VALID,23.7832,VALID,353,VALID,0.078125,
2008-09-24, 02:26:04,VALID,1004.44,VALID,0,VALID,94.2396,VALID,0,VALID,23.7637,VALID,353,VALID,0.185937,
2008-09-24, 02:27:04,VALID,1004.42,VALID,0,VALID,94.2396,VALID,0,VALID,23.7637,VALID,353,VALID,0.324609,
2008-09-24, 02:28:04,VALID,1004.43,VALID,0,VALID,94.3387,VALID,0,VALID,23.7637,VALID,353,VALID,0.460938,
2008-09-24, 02:29:04,VALID,1004.42,VALID,0,VALID,94.3387,VALID,0,VALID,23.723,VALID,353,VALID,0.607813,
2008-09-24, 02:30:04,VALID,1004.4,VALID,0,VALID,94.4227,VALID,0,VALID,23.7637,VALID,2,VALID,0.647266,
2008-09-24, 02:31:04,VALID,1004.36,VALID,0,VALID,94.4532,VALID,0,VALID,23.7637,VALID,3,VALID,0.507031,
2008-09-24, 02:32:04,VALID,1004.35,VALID,0,VALID,94.3692,VALID,0,VALID,23.7443,VALID,14,VALID,0.590234,
2008-09-24, 02:33:04,VALID,1004.33,VALID,0,VALID,94.4608,VALID,0,VALID,23.7248,VALID,14,VALID,0.477344,
2008-09-24, 02:34:04,VALID,1004.33,VALID,0,VALID,94.6668,VALID,0,VALID,23.7212,VALID,14,VALID,0.642578,
2008-09-24, 02:35:04,VALID,1004.33,VALID,0,VALID,94.7354,VALID,0,VALID,23.8027,VALID,14,VALID,0.616406,
2008-09-24, 02:36:04,VALID,1004.33,VALID,0,VALID,94.6439,VALID,0,VALID,23.7814,VALID,14,VALID,0.665625,
2008-09-24, 02:37:04,VALID,1004.32,VALID,0,VALID,94.5295,VALID,0,VALID,23.7425,VALID,14,VALID,0.710938,
2008-09-24, 02:38:04,VALID,1004.33,VALID,0,VALID,94.5066,VALID,0,VALID,23.723,VALID,12,VALID,0.670313,
2008-09-24, 02:39:04,VALID,1004.3,VALID,0,VALID,94.5752,VALID,0,VALID,23.7443,VALID,10,VALID,0.626172,
2008-09-24, 02:40:04,VALID,1004.34,VALID,0,VALID,94.6286,VALID,0,VALID,23.7443,VALID,10,VALID,0.484766,
2008-09-24, 02:41:04,VALID,1004.32,VALID,0,VALID,94.6515,VALID,0,VALID,23.7035,VALID,10,VALID,0.226563,
2008-09-24, 02:42:04,VALID,1004.34,VALID,0,VALID,94.6973,VALID,0,VALID,23.7248,VALID,10,VALID,0.078125,
2008-09-24, 02:43:04,VALID,1004.31,VALID,0,VALID,94.7278,VALID,0,VALID,23.7248,VALID,10,VALID,0,
2008-09-24, 02:44:04,VALID,1004.31,VALID,0,VALID,94.7507,VALID,0,VALID,23.7443,VALID,10,VALID,0,
2008-09-24, 02:45:04,VALID,1004.28,VALID,0,VALID,94.8117,VALID,0,VALID,23.7637,VALID,10,VALID,0,
2008-09-24, 02:46:04,VALID,1004.27,VALID,0,VALID,94.8422,VALID,0,VALID,23.7425,VALID,10,VALID,0.236328,
2008-09-24, 02:47:04,VALID,1004.24,VALID,0,VALID,94.8422,VALID,0,VALID,23.7832,VALID,10,VALID,0.398438,
2008-09-24, 02:48:04,VALID,1004.21,VALID,0,VALID,94.8422,VALID,0,VALID,23.7425,VALID,10,VALID,0.237109,
2008-09-24, 02:49:04,VALID,1004.19,VALID,0,VALID,94.7736,VALID,0,VALID,23.7637,VALID,10,VALID,0.263672,
2008-09-24, 02:50:04,VALID,1004.16,VALID,0,VALID,94.7507,VALID,0,VALID,23.7248,VALID,10,VALID,0.254297,
2008-09-24, 02:51:04,VALID,1004.14,VALID,0,VALID,94.7431,VALID,0,VALID,23.6859,VALID,10,VALID,0,
2008-09-24, 02:52:04,VALID,1004.15,VALID,0,VALID,94.7278,VALID,0,VALID,23.6859,VALID,10,VALID,0,
2008-09-24, 02:53:04,VALID,1004.14,VALID,0,VALID,94.7583,VALID,0,VALID,23.6859,VALID,10,VALID,0,
2008-09-24, 02:54:04,VALID,1004.17,VALID,0,VALID,94.7965,VALID,0,VALID,23.6452,VALID,10,VALID,0,
2008-09-24, 02:55:04,VALID,1004.14,VALID,0,VALID,94.8422,VALID,0,VALID,23.6646,VALID,10,VALID,0,
2008-09-24, 02:56:04,VALID,1004.15,VALID,0,VALID,95.0406,VALID,0,VALID,23.723,VALID,10,VALID,0,
2008-09-24, 02:57:04,VALID,1004.16,VALID,0,VALID,95.0558,VALID,0,VALID,23.7619,VALID,10,VALID,0.579687,
2008-09-24, 02:58:04,VALID,1004.15,VALID,0,VALID,95.1169,VALID,0,VALID,23.7619,VALID,7,VALID,0.601953,
2008-09-24, 02:59:04,VALID,1004.18,VALID,0,VALID,95.155,VALID,0,VALID,23.8203,VALID,7,VALID,0.629687,
2008-09-24, 03:00:04,VALID,1004.15,VALID,0,VALID,95.1627,VALID,0,VALID,23.8805,VALID,7,VALID,0.587891,
2008-09-24, 03:01:04,VALID,1004.17,VALID,0,VALID,95.0558,VALID,0,VALID,23.8611,VALID,7,VALID,0.467578,
2008-09-24, 03:02:04,VALID,1004.18,VALID,0,VALID,95.0253,VALID,0,VALID,23.8398,VALID,7,VALID,0.475,
2008-09-24, 03:03:04,VALID,1004.19,VALID,0,VALID,94.9872,VALID,0,VALID,23.8416,VALID,7,VALID,0.341406,
2008-09-24, 03:04:04,VALID,1004.21,VALID,0,VALID,94.9567,VALID,0,VALID,23.8416,VALID,7,VALID,0.420312,
2008-09-24, 03:05:04,VALID,1004.19,VALID,0,VALID,94.9109,VALID,0,VALID,23.8239,VALID,7,VALID,0.475,
2008-09-24, 03:06:04,VALID,1004.19,VALID,0,VALID,94.8728,VALID,0,VALID,23.7814,VALID,7,VALID,0.328906,
2008-09-24, 03:07:04,VALID,1004.18,VALID,0,VALID,94.8575,VALID,0,VALID,23.7637,VALID,7,VALID,0.285937,
2008-09-24, 03:08:04,VALID,1004.16,VALID,0,VALID,94.8651,VALID,0,VALID,23.7443,VALID,7,VALID,0.356641,
2008-09-24, 03:09:04,VALID,1004.14,VALID,0,VALID,94.8804,VALID,0,VALID,23.723,VALID,7,VALID,0.21875,
2008-09-24, 03:10:04,VALID,1004.14,VALID,0,VALID,94.8956,VALID,0,VALID,23.7248,VALID,7,VALID,0.248828,
2008-09-24, 03:11:04,VALID,1004.14,VALID,0,VALID,94.9567,VALID,0,VALID,23.7248,VALID,7,VALID,0.247656,
2008-09-24, 03:12:04,VALID,1004.17,VALID,0,VALID,95.0101,VALID,0,VALID,23.723,VALID,4,VALID,0.414844,
2008-09-24, 03:13:04,VALID,1004.15,VALID,0,VALID,95.0024,VALID,0,VALID,23.7443,VALID,2,VALID,0.478906,
2008-09-24, 03:14:04,VALID,1004.16,VALID,0,VALID,94.9948,VALID,0,VALID,23.7655,VALID,360,VALID,0.513281,
2008-09-24, 03:15:04,VALID,1004.18,VALID,0,VALID,94.8956,VALID,0,VALID,23.7443,VALID,359,VALID,0.466406,
2008-09-24, 03:16:04,VALID,1004.18,VALID,0,VALID,94.8041,VALID,0,VALID,23.7035,VALID,359,VALID,0.360547,
2008-09-24, 03:17:04,VALID,1004.2,VALID,0,VALID,94.7888,VALID,0,VALID,23.6859,VALID,359,VALID,0.451562,
2008-09-24, 03:18:04,VALID,1004.21,VALID,0,VALID,94.7888,VALID,0,VALID,23.6469,VALID,359,VALID,0.502734,
2008-09-24, 03:19:04,VALID,1004.22,VALID,0,VALID,94.8422,VALID,0,VALID,23.6275,VALID,359,VALID,0.510547,
2008-09-24, 03:20:04,VALID,1004.22,VALID,0,VALID,94.8499,VALID,0,VALID,23.6275,VALID,359,VALID,0.427344,
2008-09-24, 03:21:04,VALID,1004.24,VALID,0,VALID,94.8728,VALID,0,VALID,23.6062,VALID,359,VALID,0.503906,
2008-09-24, 03:22:04,VALID,1004.23,VALID,0,VALID,94.8728,VALID,0,VALID,23.6062,VALID,359,VALID,0.484375,
2008-09-24, 03:23:04,VALID,1004.27,VALID,0,VALID,94.9262,VALID,0,VALID,23.608,VALID,359,VALID,0.435156,
2008-09-24, 03:24:04,VALID,1004.29,VALID,0,VALID,95.0253,VALID,0,VALID,23.6682,VALID,357,VALID,0.352734,
2008-09-24, 03:25:04,VALID,1004.31,VALID,0,VALID,95.0787,VALID,0,VALID,23.6469,VALID,357,VALID,0.430859,
2008-09-24, 03:26:04,VALID,1004.35,VALID,0,VALID,94.888,VALID,0,VALID,23.6257,VALID,357,VALID,0.324219,
2008-09-24, 03:27:04,VALID,1004.35,VALID,0,VALID,94.8499,VALID,0,VALID,23.6062,VALID,357,VALID,0.441406,
2008-09-24, 03:28:04,VALID,1004.39,VALID,0,VALID,94.9033,VALID,0,VALID,23.6487,VALID,357,VALID,0.390234,
2008-09-24, 03:29:04,VALID,1004.4,VALID,0,VALID,94.9185,VALID,0,VALID,23.608,VALID,1,VALID,0.832031,
2008-09-24, 03:30:04,VALID,1004.41,VALID,0,VALID,94.9338,VALID,0,VALID,23.608,VALID,1,VALID,0.726563,
2008-09-24, 03:31:04,VALID,1004.39,VALID,0,VALID,94.9185,VALID,0,VALID,23.5885,VALID,1,VALID,0.494531,
2008-09-24, 03:32:04,VALID,1004.39,VALID,0,VALID,95.1474,VALID,0,VALID,23.6275,VALID,360,VALID,0.451562,
2008-09-24, 03:33:04,VALID,1004.37,VALID,0,VALID,95.1932,VALID,0,VALID,23.6859,VALID,353,VALID,0.630078,
2008-09-24, 03:34:04,VALID,1004.39,VALID,0,VALID,95.1627,VALID,0,VALID,23.6859,VALID,353,VALID,0.415234,
2008-09-24, 03:35:04,VALID,1004.36,VALID,0,VALID,95.2466,VALID,0,VALID,23.7035,VALID,353,VALID,0.213281,
2008-09-24, 03:36:04,VALID,1004.37,VALID,0,VALID,95.0635,VALID,0,VALID,23.7053,VALID,353,VALID,0.203516,
2008-09-24, 03:37:04,VALID,1004.38,VALID,0,VALID,94.8956,VALID,0,VALID,23.6664,VALID,353,VALID,0,
2008-09-24, 03:38:04,VALID,1004.39,VALID,0,VALID,94.8499,VALID,0,VALID,23.6275,VALID,353,VALID,0.313672,
2008-09-24, 03:39:04,VALID,1004.36,VALID,0,VALID,95.0024,VALID,0,VALID,23.6275,VALID,353,VALID,0.248437,
2008-09-24, 03:40:04,VALID,1004.41,VALID,0,VALID,95.0406,VALID,0,VALID,23.6469,VALID,353,VALID,0.274609,
2008-09-24, 03:41:04,VALID,1004.46,VALID,0,VALID,94.949,VALID,0,VALID,23.6469,VALID,353,VALID,0.258203,
2008-09-24, 03:42:04,VALID,1004.48,VALID,0,VALID,94.9796,VALID,0,VALID,23.6487,VALID,353,VALID,0.241016,
2008-09-24, 03:43:04,VALID,1004.49,VALID,0,VALID,95.0406,VALID,0,VALID,23.6469,VALID,344,VALID,0.256641,